Location: LDNL
(36.4545°S, 141.6685°E)
Time: 12:53:02
(UTC+10:00)

Vanguard 3 - Pass Details

Date: 27 January 2022
Orbit: 508 x 3258 km, 33.3° (Epoch: 25 May)

Event Time Altitude Azimuth Distance (km) Brightness Sun altitude
Rises 06:06:38 0° 259° (W) 5,715 11.0 -7.5°
Reaches altitude 10° 06:09:56 10° 262° (W) 5,013 10.7 -6.9°
Maximum altitude 06:25:29 61° 337° (NNW) 3,387 10.1 -4.2°
Drops below altitude 10° 06:44:56 10° 50° (NE) 6,081 12.0 -0.7°
Sets 06:49:28 0° 54° (NE) 6,943 12.4 0.2°
